Temperature
15 15 15 16 13 12 14 15 15 16 17 18 19 18 17 17 18 19 18 19 19 18 18 18 17 17 16 16 16 16 16 16 16 16 16 16 16 16 16 16 16 16 16 16 15 15 15 15 15
15 15 15 15 12 14 15 15 15 16 18 18 19 18 18 18 18 18 18 18 18 18 18 18 17 17 16 16 16 16 16 16 16 16 16 16 16 16 16 16 16 16 16 15 15 15 15 15 15
15 15 15 12 12 13 16 16 15 16 18 18 18 18 18 18 18 18 18 18 18 18 18 18 17 17 16 16 16 16 16 16 16 16 16 16 16 16 16 16 16 15 15 15 15 15 15 15 15
15 15 14 12 13 13 14 16 15 15 17 18 18 17 17 18 18 18 18 18 18 18 18 17 17 17 16 16 16 16 16 16 16 16 16 16 16 16 15 15 15 15 15 15 15 15 15 15 15
14 14 12 12 13 13 13 15 16 16 16 17 17 16 17 17 18 18 18 18 18 18 17 17 17 16 16 16 16 16 16 16 16 16 16 15 15 15 15 15 15 15 15 15 15 15 15 15 14
14 12 11 12 13 13 14 15 16 15 15 16 17 16 17 17 18 18 18 18 17 17 17 17 16 16 16 16 16 16 15 15 15 15 15 15 15 15 15 15 15 15 15 15 15 14 14 14 14
13 11 12 12 13 14 15 16 15 15 15 16 17 16 16 17 17 17 17 17 17 17 17 16 16 16 16 16 16 15 15 15 15 15 15 15 15 15 15 15 15 14 14 14 14 14 14 14 14
14 11 12 12 13 14 15 16 16 16 16 17 17 15 16 17 17 17 17 17 16 16 16 16 16 16 16 16 15 15 15 15 15 15 15 15 14 14 14 14 14 14 14 14 14 14 14 14 14
13 11 11 12 13 14 15 15 16 16 16 16 16 17 17 17 17 17 17 16 16 16 16 16 16 16 15 15 15 15 15 15 15 15 15 14 14 14 14 14 14 14 14 14 14 14 13 14 14
12 11 12 13 13 14 14 14 15 15 14 15 16 16 17 17 16 16 17 16 16 16 16 16 15 15 15 15 15 15 15 15 15 14 14 14 14 14 14 14 14 14 14 14 13 13 13 13 13
11 11 12 13 14 14 14 14 14 14 14 15 16 16 16 16 16 16 16 16 16 16 16 15 15 15 15 15 15 15 15 14 14 14 14 14 14 14 14 14 14 14 13 13 13 13 13 13 13
11 11 12 13 14 14 13 13 13 13 15 16 16 16 16 16 16 16 16 16 16 16 16 15 15 15 15 15 15 15 14 14 14 14 14 14 14 13 13 13 13 13 13 13 13 13 13 13 13
10 11 12 13 13 13 13 12 13 13 15 15 15 15 16 16 16 16 16 16 16 16 15 15 15 15 15 15 15 14 14 14 14 14 13 13 13 13 13 13 13 13 13 13 13 13 13 13 13
11 11 11 12 12 13 12 12 12 13 15 15 15 15 15 15 16 15 15 16 16 15 15 15 15 15 15 14 14 14 14 14 14 13 13 13 13 13 13 13 13 13 13 13 13 12 12 12 12
11 10 10 11 11 12 12 11 11 14 14 14 15 15 15 15 15 15 15 15 15 15 15 15 15 15 14 14 14 14 14 14 13 13 13 13 12 12 12 12 12 12 12 12 12 12 12 12 12
10 10 10 11 11 11 12 11 12 14 13 13 14 14 15 15 15 15 15 15 15 15 15 15 15 14 14 14 14 14 13 13 13 13 13 12 12 12 12 12 12 12 12 12 12 12 12 12 11
9 9 9 10 11 11 11 10 11 13 12 12 13 13 14 14 15 15 15 15 15 15 15 15 14 14 14 14 14 13 13 13 12 12 12 12 12 12 12 11 11 11 11 11 11 11 11 11 11
9 8 9 9 10 10 10 9 10 12 11 11 12 13 13 14 15 15 15 15 15 15 14 14 14 14 14 14 13 13 13 12 12 12 12 12 11 11 11 11 11 11 11 11 11 11 11 11 11
9 8 9 9 10 10 9 9 10 10 10 10 11 12 13 14 14 14 14 14 14 14 14 14 14 14 14 13 13 13 12 12 12 12 12 11 11 11 11 11 11 11 10 10 10 10 10 10 10
9 9 9 9 10 10 9 9 9 9 9 10 11 12 12 13 13 14 14 14 14 14 14 14 14 13 13 13 13 13 12 12 12 11 11 11 11 11 11 11 10 10 10 10 10 10 10 9 9
8 8 8 9 9 9 9 9 9 9 10 10 11 12 12 13 13 13 14 14 14 14 14 14 13 13 13 13 12 12 12 12 11 11 11 11 11 10 10 10 10 10 10 9 9 9 9 9 8
8 9 9 9 8 8 9 8 9 9 9 9 10 11 12 12 13 13 13 13 13 13 13 13 13 13 13 12 12 12 12 12 11 11 11 10 10 10 10 9 9 9 9 9 9 9 8 8 8
8 9 9 8 8 7 7 8 8 8 9 10 9 10 11 12 13 13 13 13 13 13 13 13 13 12 12 12 12 12 11 11 11 11 10 10 10 9 9 9 9 9 9 8 8 8 8 8 7
8 8 8 7 7 7 7 7 8 8 9 10 9 10 11 12 12 12 12 12 12 12 12 12 12 12 12 11 11 11 11 11 10 10 10 10 9 9 9 8 8 8 8 8 8 8 7 7 7
8 8 7 7 7 7 7 7 8 9 9 9 9 10 11 11 12 12 12 12 12 12 12 12 12 12 11 11 11 11 10 10 10 10 9 9 9 9 8 8 8 8 8 7 7 7 7 7 6
8 8 8 8 7 7 7 7 8 8 8 9 10 10 10 11 11 11 12 12 11 11 11 11 11 11 11 11 10 10 10 10 9 9 9 9 8 8 8 7 7 7 7 7 7 7 6 6 6
7 7 8 7 6 6 6 6 7 8 8 8 8 9 10 10 11 11 11 11 11 11 11 11 11 10 10 10 10 10 9 9 9 8 8 8 8 7 7 7 7 7 7 7 6 6 6 6 5
8 7 6 7 7 7 7 7 8 9 8 8 7 8 9 10 10 10 10 10 10 10 10 10 10 10 10 9 9 9 9 9 8 8 8 7 7 7 7 7 6 6 6 6 6 6 5 5 5
7 7 7 6 6 6 7 8 8 8 8 8 7 8 9 10 10 10 10 10 10 10 10 10 10 9 9 9 9 8 8 8 8 7 7 7 7 7 6 6 6 6 6 6 5 5 5 5 5
7 7 6 6 6 5 5 7 9 7 7 7 7 8 9 9 9 10 9 9 10 10 9 9 9 9 9 8 8 8 7 7 7 7 7 6 6 6 6 6 5 5 5 5 5 5 4 4 4
Wind_Speed
3 3 3 4 5 4 3 5 3 3 2 1 1 4 6 5 4 3 1 3 4 5 7 8 9 9 9 9 9 9 8 8 8 8 8 8 8 8 7 7 6 6 6 5 5 5 5 6 6
1 2 4 5 4 2 6 5 5 4 2 0 2 3 3 1 0 3 1 2 4 6 6 7 9 9 9 9 8 8 8 8 7 7 7 7 7 7 6 6 6 5 5 5 4 5 5 5 5
1 3 4 4 4 7 5 3 5 3 2 0 1 2 3 1 1 2 2 4 5 5 5 7 9 9 9 8 8 8 8 7 7 6 6 6 6 6 6 6 5 5 4 4 4 5 5 4 5
3 4 4 3 6 6 5 3 1 2 2 2 2 2 1 1 1 2 3 6 7 5 5 7 9 8 8 8 7 7 7 7 6 6 6 5 5 5 5 5 5 4 4 4 4 4 4 4 4
4 4 2 2 6 5 5 4 2 1 1 1 2 2 1 3 2 3 5 7 7 5 4 6 8 8 7 7 6 6 6 6 6 5 5 5 4 4 4 5 4 4 3 3 3 3 3 3 3
3 4 3 5 6 5 4 3 1 1 1 0 2 2 2 1 2 3 5 5 5 6 4 5 7 7 6 6 6 5 5 5 5 5 5 4 4 3 3 4 4 4 3 2 3 3 2 3 3
4 4 5 5 4 4 3 1 3 2 2 2 3 3 2 2 1 3 4 4 4 3 3 3 4 5 6 6 5 5 4 4 4 4 4 4 3 3 3 3 3 3 3 2 2 2 2 2 3
4 4 4 5 5 5 2 0 1 3 3 1 4 5 4 3 3 4 5 4 3 2 2 2 2 3 4 4 4 4 4 3 3 4 3 3 3 3 3 3 3 3 3 2 2 2 2 2 2
4 2 6 6 6 4 1 1 2 0 1 0 1 3 2 3 5 6 4 3 2 2 1 2 2 2 3 3 3 4 3 3 2 2 3 2 2 2 2 2 2 3 3 4 3 3 2 2 2
4 6 9 4 4 2 1 1 1 1 1 1 1 1 2 4 5 5 4 4 4 4 4 3 3 3 2 2 3 3 2 2 2 2 2 2 2 2 2 2 2 3 4 4 4 3 3 2 1
5 7 5 4 3 2 2 2 1 2 4 6 6 4 3 3 3 5 5 5 6 5 4 4 4 3 3 2 2 2 2 2 2 2 2 2 2 1 1 1 1 3 3 2 2 2 1 1 1
4 5 4 4 2 2 3 2 3 5 8 6 7 5 4 6 6 7 7 6 5 4 4 4 4 4 3 2 2 2 1 1 1 1 2 2 1 0 0 0 1 1 1 1 1 1 1 2 2
5 5 4 5 5 5 4 6 5 8 9 5 4 5 7 7 7 7 6 5 5 5 5 4 4 5 4 3 2 2 2 1 1 1 1 2 1 1 1 1 1 1 2 1 2 2 2 2 2
4 4 6 6 6 4 6 8 5 9 6 5 5 7 7 8 8 6 5 6 6 6 5 5 5 5 4 4 3 2 2 1 2 1 1 2 2 1 1 1 1 2 2 2 2 3 3 3 2
1 3 6 6 5 4 3 9 9 9 4 6 7 7 7 7 7 8 8 7 7 6 5 5 5 4 5 4 4 2 2 2 1 1 2 2 2 2 1 1 2 2 2 2 2 2 2 2 2
1 2 6 5 4 4 5 12 8 4 4 7 8 7 7 7 7 8 7 6 6 5 5 5 4 4 4 4 3 2 2 2 1 1 1 2 2 2 1 1 2 2 1 1 2 2 2 3 3
1 5 7 6 4 3 6 10 8 4 5 9 9 8 8 7 6 6 6 6 5 6 5 5 4 5 5 4 3 2 2 2 1 1 1 1 2 2 2 1 1 1 1 1 2 2 2 3 3
7 6 5 7 3 3 7 12 11 7 8 10 10 9 8 8 8 6 5 4 5 5 5 5 4 4 4 3 3 2 1 1 1 1 1 2 2 2 2 1 1 1 1 1 2 2 2 3 3
5 5 6 6 3 4 10 14 15 10 9 11 10 9 9 9 6 4 3 3 3 3 4 5 5 4 4 3 3 2 2 1 1 1 1 2 2 2 2 1 1 1 2 2 2 2 2 2 1
6 7 7 6 4 4 8 14 13 10 10 11 11 11 9 7 4 4 3 3 4 4 5 4 5 5 5 4 4 3 2 1 1 1 0 1 1 1 1 1 2 2 2 2 2 2 2 2 1
10 10 8 7 5 4 6 11 9 6 6 7 8 8 7 8 8 6 4 4 4 5 6 6 6 5 5 4 3 2 2 1 1 0 1 1 0 1 1 2 2 2 2 2 3 3 3 3 2
11 9 8 6 3 5 1 7 8 5 6 7 8 6 7 7 6 5 5 5 5 6 5 5 5 5 4 5 5 5 3 2 2 1 1 1 0 0 1 2 2 2 2 2 3 2 3 3 3
6 4 6 5 4 5 4 5 9 3 6 8 7 7 7 7 7 6 6 6 5 4 4 4 4 3 3 4 5 5 3 2 1 0 0 1 1 1 1 1 2 2 2 3 3 3 3 3 4
5 4 2 1 1 7 9 8 8 6 8 7 7 7 7 6 5 4 3 3 2 2 3 4 4 3 3 4 4 5 4 3 2 1 1 1 1 2 2 2 2 2 2 3 3 3 4 4 4
6 5 1 2 4 8 5 7 10 9 7 8 8 8 7 5 4 4 4 4 3 3 4 4 4 3 3 4 4 4 4 4 3 2 2 2 2 2 3 2 2 2 3 3 4 4 4 4 5
10 9 7 7 6 4 4 9 9 7 5 5 5 5 4 4 4 4 5 5 5 5 5 4 4 3 3 4 3 3 3 2 2 2 2 2 2 3 3 3 3 3 3 3 4 4 5 4 5
9 8 6 3 2 3 6 7 9 4 3 3 3 3 4 4 4 4 4 4 4 5 5 5 5 3 3 3 3 2 2 2 1 1 1 1 2 2 3 3 3 4 4 4 4 4 5 5 5
5 8 5 5 5 6 6 6 5 5 5 4 4 5 5 4 4 4 4 4 4 4 4 4 5 5 3 3 2 2 1 1 1 0 1 2 2 3 3 3 4 4 4 4 4 4 5 6 6
6 6 5 5 4 5 4 6 5 6 5 5 5 5 5 5 4 4 3 3 3 3 4 4 4 4 3 3 2 2 1 0 1 0 1 2 2 3 3 3 4 4 4 4 4 5 5 6 6
7 8 8 6 6 5 4 7 4 4 3 3 4 3 3 3 3 3 3 3 4 3 3 4 4 4 3 3 3 2 1 1 1 1 2 2 3 3 4 4 4 4 5 4 5 6 6 6 7
Wind_Direction
4 51 72 59 60 57 238 242 231 258 239 251 141 133 144 149 157 170 227 135 142 144 157 166 156 154 149 143 139 134 133 131 132 131 128 127 127 127 129 129 130 130 127 122 119 119 117 113 114
43 70 60 65 103 183 253 237 227 229 224 30 67 102 106 125 81 118 118 172 136 140 149 158 158 157 152 146 142 140 138 134 133 134 134 135 135 134 129 129 131 132 131 125 118 119 121 119 119
96 59 88 88 153 195 223 222 220 270 283 92 70 75 127 147 152 172 214 153 125 131 144 151 155 156 154 149 145 143 142 140 136 134 137 143 143 141 139 137 138 138 135 130 129 131 126 126 127
91 56 63 104 218 226 226 242 228 317 348 36 112 65 23 3 235 199 140 136 130 136 137 150 153 153 152 151 149 148 149 147 143 139 140 143 150 153 151 147 148 146 144 139 138 140 140 140 145
64 85 95 227 240 248 246 264 243 203 329 1 108 124 336 346 27 107 128 138 141 147 137 147 151 154 152 151 152 151 152 152 154 152 151 151 153 158 157 150 149 148 151 154 155 150 154 163 168
72 82 138 226 244 261 265 257 204 196 225 320 126 138 229 332 93 120 130 133 141 149 136 143 156 155 154 152 150 156 162 164 166 167 166 168 166 161 163 162 157 157 163 163 161 161 174 185 188
124 130 192 217 245 261 257 219 163 188 220 224 163 145 261 291 170 116 107 104 104 115 118 118 152 159 159 159 158 159 166 176 179 179 182 180 174 174 175 173 178 176 177 172 166 170 191 207 212
135 129 198 223 223 247 272 329 167 178 225 241 145 156 215 232 119 97 87 85 93 101 116 127 118 139 151 159 167 169 171 177 186 188 188 193 190 189 188 185 195 201 206 211 210 206 215 224 228
108 133 217 218 205 232 284 358 321 289 137 348 176 190 226 135 113 100 91 84 118 145 169 165 142 121 137 146 159 162 172 181 183 180 182 183 176 176 189 191 205 226 231 237 241 238 236 237 245
135 201 222 216 202 223 286 245 264 22 348 268 299 322 74 118 131 141 160 177 189 198 200 192 182 168 135 146 140 144 160 165 159 147 156 154 154 169 191 204 218 239 247 249 251 249 243 250 264
178 210 225 239 229 226 259 283 263 182 241 216 211 213 152 153 165 180 197 201 205 206 202 203 196 178 162 148 126 123 136 133 132 146 161 153 150 163 174 182 247 256 257 257 266 267 266 247 235
200 236 227 245 232 224 230 252 267 218 233 229 208 192 182 189 203 206 207 213 206 200 211 211 198 186 178 157 138 128 123 110 107 138 149 132 114 128 168 186 249 255 246 238 246 241 250 234 226
222 252 243 251 262 251 248 246 249 252 254 257 235 213 210 215 221 221 214 212 203 203 210 209 195 192 183 170 167 155 168 158 146 138 151 151 145 221 232 246 255 260 256 239 238 241 240 237 233
224 247 270 269 258 253 243 259 242 257 248 241 226 228 226 221 221 221 218 215 213 209 209 201 196 193 179 179 181 180 175 145 135 144 177 176 175 189 218 242 266 270 257 247 238 238 237 239 237
203 279 290 259 237 240 228 271 237 244 237 246 244 242 242 236 224 220 216 212 212 211 206 197 195 186 179 182 184 173 166 147 151 164 183 183 183 185 192 231 253 268 261 255 255 249 239 242 245
107 234 262 262 212 212 193 258 256 232 217 247 250 249 245 242 230 228 221 213 207 200 200 201 190 179 180 179 175 165 159 155 168 166 166 180 182 177 176 210 248 272 270 257 247 251 242 246 247
211 228 238 269 220 188 202 252 263 236 230 254 256 252 248 249 248 237 220 209 202 197 193 190 185 178 179 171 160 157 154 154 173 160 163 196 193 180 170 208 253 268 273 263 265 260 239 245 257
209 219 234 239 245 201 237 257 268 261 245 253 259 255 249 244 248 243 223 209 198 192 188 184 177 177 168 156 139 128 126 161 164 180 204 192 189 183 171 196 234 215 209 260 273 263 258 243 255
183 198 240 251 254 240 249 264 270 265 255 254 254 246 241 242 246 236 217 198 178 180 183 186 176 176 163 159 162 170 196 212 210 208 185 170 173 171 163 199 218 209 210 230 242 250 268 262 256
215 235 252 279 277 254 271 272 266 253 240 237 238 238 233 234 239 233 211 192 188 192 190 185 184 180 176 178 176 175 178 187 199 214 167 138 156 170 193 192 213 224 230 244 248 235 250 270 219
222 222 232 250 309 298 295 286 263 257 239 246 240 234 228 220 219 219 212 209 196 194 193 187 185 181 178 165 142 113 89 75 100 260 254 275 164 167 205 220 224 228 224 237 245 222 222 248 242
231 219 213 226 260 280 258 284 270 255 264 253 248 240 235 232 218 212 205 207 206 206 195 184 173 172 170 159 157 161 171 197 221 217 216 305 5 17 236 229 229 228 232 234 240 229 226 226 246
205 180 191 210 218 273 235 241 278 261 251 250 247 239 236 228 214 209 205 206 208 196 183 179 157 157 160 159 162 160 169 187 174 95 111 309 317 332 301 250 236 235 240 239 236 234 234 224 229
154 98 71 84 173 257 222 208 270 234 223 238 242 242 239 230 214 209 204 189 186 170 162 156 146 151 150 149 155 159 163 161 144 196 231 281 301 299 291 268 247 241 245 244 240 232 228 232 231
157 141 170 250 230 246 190 207 249 245 227 222 234 240 236 217 197 193 186 180 174 168 166 155 149 154 151 145 152 159 164 164 178 199 214 244 273 277 274 273 257 254 252 250 247 238 238 234 232
187 174 183 204 220 260 200 229 252 256 248 236 235 233 222 204 196 198 197 185 178 174 168 158 156 156 150 144 148 148 151 165 188 204 212 235 253 260 263 260 265 264 260 263 256 246 243 243 239
170 198 182 157 191 245 246 270 295 271 274 244 233 223 220 212 205 200 192 182 174 169 167 161 156 147 147 149 148 144 148 152 186 222 230 258 274 283 282 275 272 271 266 260 260 257 250 244 241
164 152 145 182 195 236 261 251 246 264 261 252 234 229 237 221 206 196 189 182 175 169 161 151 155 156 155 145 141 136 145 157 168 200 261 277 283 288 290 288 283 277 271 265 260 264 262 248 247
157 171 173 175 193 192 244 260 227 229 231 229 234 235 231 219 205 194 186 172 155 145 144 145 147 141 135 132 128 120 101 72 79 17 286 285 295 299 296 292 289 287 283 274 265 264 265 261 258
179 181 170 182 212 198 213 264 276 251 250 231 240 243 232 216 200 176 163 148 138 141 143 147 147 140 144 138 127 123 99 58 50 340 310 313 312 310 306 304 303 300 295 287 278 275 271 265 263
Height
1487 1489 1490 1493 1497 1507 1505 1497 1492 1490 1487 1486 1485 1486 1488 1491 1494 1498 1495 1493 1494 1495 1496 1497 1499 1501 1502 1504 1505 1506 1507 1509 1510 1511 1512 1512 1513 1514 1515 1516 1516 1517 1518 1518 1519 1520 1520 1521 1521
1487 1489 1492 1493 1502 1509 1503 1493 1491 1487 1485 1485 1485 1486 1487 1489 1490 1491 1492 1493 1494 1495 1496 1497 1499 1500 1502 1504 1505 1506 1507 1508 1509 1510 1511 1512 1513 1514 1515 1515 1516 1517 1517 1518 1519 1519 1520 1520 1521
1487 1489 1492 1495 1502 1504 1495 1488 1487 1485 1485 1485 1485 1486 1487 1489 1490 1491 1492 1493 1494 1495 1496 1497 1499 1500 1502 1503 1504 1506 1507 1508 1509 1510 1511 1512 1513 1513 1514 1515 1515 1516 1517 1517 1518 1519 1519 1520 1521
1488 1490 1492 1498 1497 1494 1489 1485 1485 1484 1484 1484 1485 1487 1488 1489 1490 1491 1492 1493 1494 1495 1496 1497 1499 1500 1501 1503 1504 1505 1506 1507 1508 1509 1510 1511 1512 1512 1513 1514 1515 1515 1516 1517 1517 1518 1519 1519 1520
1488 1489 1495 1499 1495 1489 1486 1484 1484 1484 1484 1485 1486 1487 1488 1489 1489 1491 1492 1493 1494 1495 1496 1497 1498 1499 1501 1502 1503 1504 1505 1506 1507 1508 1509 1510 1511 1512 1512 1513 1514 1514 1515 1516 1516 1517 1518 1518 1519
1488 1489 1499 1499 1493 1487 1484 1483 1483 1484 1484 1485 1485 1486 1487 1488 1489 1490 1492 1493 1494 1495 1496 1497 1498 1499 1500 1501 1502 1503 1504 1505 1506 1507 1508 1509 1510 1511 1511 1512 1513 1513 1514 1514 1515 1516 1516 1517 1518
1487 1492 1495 1494 1492 1487 1483 1482 1482 1483 1483 1484 1485 1486 1486 1488 1489 1490 1491 1492 1493 1494 1495 1496 1497 1498 1499 1500 1501 1502 1503 1504 1505 1506 1507 1507 1508 1509 1510 1511 1511 1512 1513 1513 1514 1514 1515 1515 1516
1485 1490 1491 1492 1490 1486 1482 1481 1481 1481 1482 1483 1484 1485 1485 1487 1488 1489 1490 1491 1492 1493 1494 1495 1496 1497 1497 1498 1499 1500 1501 1502 1503 1504 1505 1506 1507 1508 1508 1509 1510 1510 1511 1511 1512 1512 1513 1513 1514
1484 1492 1491 1488 1487 1483 1481 1480 1481 1481 1481 1482 1482 1484 1484 1485 1486 1488 1489 1490 1491 1492 1493 1493 1494 1495 1496 1497 1498 1498 1499 1500 1501 1502 1503 1504 1505 1506 1506 1507 1508 1508 1509 1509 1510 1510 1511 1511 1512
1483 1489 1484 1482 1481 1481 1480 1480 1480 1480 1480 1481 1481 1482 1483 1484 1485 1486 1486 1487 1488 1489 1491 1491 1492 1493 1494 1495 1496 1496 1497 1498 1499 1500 1501 1502 1503 1503 1504 1505 1505 1506 1506 1507 1507 1508 1508 1508 1509
1480 1482 1480 1479 1479 1479 1479 1479 1479 1479 1479 1478 1479 1480 1481 1482 1483 1484 1485 1486 1487 1488 1489 1490 1490 1491 1492 1493 1493 1494 1495 1496 1497 1498 1499 1500 1500 1501 1502 1502 1503 1503 1504 1504 1505 1505 1505 1505 1506
1479 1477 1477 1477 1477 1478 1478 1478 1478 1477 1476 1476 1477 1478 1479 1480 1481 1481 1482 1484 1485 1486 1487 1488 1488 1489 1490 1491 1491 1492 1493 1494 1495 1495 1496 1497 1498 1498 1499 1499 1500 1500 1501 1501 1502 1502 1502 1502 1503
1477 1476 1476 1476 1476 1476 1476 1476 1475 1473 1473 1474 1474 1475 1475 1477 1478 1479 1480 1481 1482 1483 1484 1485 1486 1487 1488 1489 1489 1490 1490 1491 1492 1493 1493 1494 1495 1495 1496 1496 1497 1497 1498 1498 1498 1498 1499 1499 1499
1474 1475 1474 1474 1474 1474 1474 1472 1473 1467 1469 1470 1470 1471 1472 1473 1474 1475 1476 1477 1479 1480 1481 1482 1484 1485 1485 1486 1487 1487 1488 1489 1490 1490 1491 1491 1492 1493 1493 1493 1494 1494 1494 1495 1495 1495 1495 1495 1495
1473 1475 1473 1471 1471 1471 1473 1471 1467 1464 1466 1466 1467 1467 1468 1469 1470 1471 1472 1473 1475 1477 1478 1479 1481 1482 1483 1483 1484 1485 1486 1486 1487 1488 1488 1489 1489 1490 1490 1491 1491 1491 1491 1492 1492 1492 1492 1491 1491
1473 1476 1476 1469 1469 1469 1474 1469 1461 1462 1463 1463 1463 1463 1464 1465 1466 1467 1469 1470 1471 1473 1475 1476 1477 1478 1479 1480 1481 1482 1483 1484 1484 1485 1485 1486 1486 1487 1487 1488 1488 1488 1488 1488 1488 1488 1488 1487 1487
1476 1478 1475 1471 1467 1467 1470 1466 1459 1459 1460 1460 1459 1459 1459 1460 1461 1463 1464 1466 1468 1469 1471 1472 1474 1475 1476 1477 1478 1479 1480 1481 1481 1482 1482 1483 1483 1484 1484 1484 1485 1485 1485 1485 1485 1484 1484 1483 1483
1475 1477 1474 1471 1466 1467 1468 1463 1457 1456 1457 1456 1455 1455 1455 1455 1456 1458 1460 1462 1464 1465 1467 1469 1470 1471 1473 1474 1475 1476 1477 1477 1478 1478 1479 1480 1480 1481 1481 1481 1481 1482 1481 1481 1481 1480 1480 1479 1479
1469 1472 1472 1468 1465 1466 1464 1460 1454 1451 1452 1451 1450 1450 1450 1451 1453 1454 1456 1458 1459 1461 1463 1464 1466 1468 1469 1470 1471 1472 1473 1474 1474 1475 1476 1476 1477 1477 1478 1478 1478 1478 1477 1477 1477 1477 1476 1475 1475
1468 1470 1470 1467 1465 1464 1463 1457 1450 1447 1446 1445 1445 1445 1445 1446 1448 1450 1452 1454 1455 1457 1458 1460 1462 1464 1465 1466 1468 1469 1470 1471 1472 1472 1473 1473 1473 1474 1474 1474 1474 1474 1473 1473 1473 1472 1472 1471 1471
1466 1468 1468 1468 1466 1463 1464 1455 1447 1442 1441 1441 1440 1440 1441 1442 1443 1445 1447 1449 1451 1453 1454 1456 1458 1460 1462 1463 1465 1466 1467 1467 1468 1469 1469 1470 1470 1470 1470 1470 1470 1470 1469 1469 1469 1468 1468 1468 1467
1462 1461 1463 1465 1470 1470 1466 1464 1446 1441 1439 1437 1436 1436 1437 1438 1440 1441 1443 1445 1447 1449 1451 1452 1454 1456 1458 1460 1461 1462 1463 1463 1464 1465 1466 1466 1467 1466 1466 1466 1466 1466 1465 1465 1465 1464 1464 1464 1463
1457 1457 1461 1464 1468 1471 1467 1467 1448 1441 1438 1434 1432 1432 1433 1434 1436 1437 1439 1441 1444 1446 1447 1449 1451 1453 1455 1457 1458 1459 1460 1461 1462 1462 1463 1463 1463 1463 1462 1462 1462 1461 1461 1460 1460 1460 1460 1459 1459
1453 1458 1463 1467 1470 1470 1462 1465 1449 1440 1432 1429 1428 1428 1428 1430 1432 1434 1436 1438 1440 1442 1444 1446 1448 1450 1452 1453 1455 1456 1457 1457 1458 1459 1459 1459 1459 1459 1459 1458 1458 1457 1456 1456 1456 1455 1455 1454 1454
1452 1460 1469 1469 1471 1463 1457 1458 1442 1428 1425 1424 1424 1424 1425 1427 1429 1431 1433 1435 1437 1439 1441 1443 1445 1447 1449 1450 1452 1453 1454 1454 1455 1455 1455 1455 1455 1454 1454 1454 1453 1452 1452 1451 1451 1450 1449 1449 1449
1448 1451 1460 1464 1464 1460 1456 1452 1435 1423 1420 1420 1421 1421 1422 1424 1426 1428 1430 1431 1433 1436 1438 1440 1442 1444 1446 1447 1449 1450 1451 1451 1451 1452 1452 1451 1451 1450 1450 1449 1448 1447 1447 1446 1445 1444 1444 1443 1443
1445 1448 1449 1458 1461 1461 1453 1444 1432 1420 1419 1419 1419 1419 1420 1421 1423 1425 1427 1429 1431 1433 1436 1438 1440 1442 1444 1445 1446 1446 1447 1448 1448 1448 1448 1448 1447 1446 1445 1445 1444 1443 1442 1441 1440 1439 1438 1438 1437
1436 1442 1451 1454 1455 1453 1446 1443 1433 1421 1419 1418 1417 1417 1418 1419 1421 1423 1425 1427 1429 1431 1434 1436 1438 1440 1441 1442 1443 1444 1444 1445 1445 1445 1444 1444 1443 1442 1441 1440 1439 1437 1436 1435 1434 1433 1432 1432 1431
1437 1441 1442 1448 1450 1451 1447 1436 1420 1417 1415 1416 1415 1415 1416 1418 1419 1421 1423 1425 1427 1429 1432 1434 1435 1437 1438 1439 1440 1441 1441 1441 1441 1441 1440 1440 1439 1438 1436 1435 1433 1432 1430 1429 1428 1427 1426 1425 1424
1429 1432 1438 1444 1448 1450 1449 1434 1414 1414 1413 1413 1414 1415 1416 1417 1418 1419 1421 1423 1425 1427 1429 1431 1433 1434 1435 1437 1437 1438 1438 1438 1437 1437 1437 1436 1434 1433 1431 1430 1428 1426 1425 1423 1422 1421 1420 1419 1418